Location: Glasgow
(55.8642°N, 4.2518°W)
Time: 14:25:13
(UTC+00:00)

Envisat - Visible Passes

Search period start: 18 December 2017 00:00
Search period end: 28 December 2017 00:00
Orbit: 764 x 766 km, 98.2° (Epoch: 18 December)

Date Brightness Start Highest point End Pass type
(mag) Time Alt. Az. Time Alt. Az. Time Alt. Az.
18 Dec 5.5 07:46:13 10° NE 07:50:13 23° E 07:54:11 10° SE visible
18 Dec 4.7 17:35:44 15° NE 17:35:44 15° NE 17:37:45 10° NNE visible
18 Dec 4.6 19:15:56 24° N 19:15:56 24° N 19:17:58 10° N visible
18 Dec 5.8 20:56:08 12° NW 20:56:08 12° NW 20:56:41 10° NNW visible
19 Dec 6.0 07:10:54 10° ENE 07:12:56 12° E 07:14:57 10° ESE visible
19 Dec 4.4 18:38:45 23° NNE 18:38:45 23° NNE 18:41:01 10° N visible
19 Dec 5.3 20:18:57 18° NNW 20:18:57 18° NNW 20:20:18 10° NNW visible
20 Dec 4.5 18:01:34 19° NNE 18:01:34 19° NNE 18:03:51 10° N visible
20 Dec 4.8 19:41:46 23° NNW 19:41:46 23° NNW 19:43:38 10° NNW visible
21 Dec 5.7 07:35:21 10° NE 07:38:57 19° E 07:42:32 10° SE visible
21 Dec 4.7 17:24:23 13° NE 17:24:23 13° NE 17:26:19 10° NNE visible
21 Dec 4.4 19:04:35 25° N 19:04:35 25° N 19:06:48 10° N visible
21 Dec 5.6 20:44:47 15° NW 20:44:47 15° NW 20:45:42 10° NNW visible
22 Dec 4.4 18:27:23 23° NNE 18:27:23 23° NNE 18:29:47 10° N visible
22 Dec 5.0 20:07:35 21° NNW 20:07:35 21° NNW 20:09:14 10° NNW visible
23 Dec 4.5 17:50:11 18° NNE 17:50:11 18° NNE 17:52:33 10° N visible
23 Dec 4.6 19:30:23 25° N 19:30:23 25° N 19:32:30 10° NNW visible
23 Dec 5.9 21:10:35 11° NW 21:10:35 11° NW 21:10:53 10° NW visible
24 Dec 5.8 07:24:34 10° NE 07:27:40 16° E 07:30:45 10° ESE visible
24 Dec 4.8 17:12:58 12° NE 17:12:58 12° NE 17:14:45 10° NNE visible
24 Dec 4.3 18:53:11 26° N 18:53:11 26° N 18:55:36 10° N visible
24 Dec 5.4 20:33:22 17° NW 20:33:22 17° NW 20:34:41 10° NNW visible
25 Dec 4.3 18:15:58 22° NNE 18:15:58 22° NNE 18:18:32 10° N visible
25 Dec 4.8 19:56:10 24° NNW 19:56:10 24° NNW 19:58:07 10° NNW visible
26 Dec 5.4 07:49:29 10° NE 07:53:37 24° E 07:57:44 10° SE visible
26 Dec 4.6 17:38:45 16° NE 17:38:45 16° NE 17:41:12 10° N visible
26 Dec 4.3 19:18:57 28° N 19:18:57 28° N 19:21:21 10° NNW visible
26 Dec 5.7 20:59:08 14° NW 20:59:08 14° NW 20:59:58 10° NW visible
27 Dec 5.9 07:13:58 10° NE 07:16:21 13° E 07:18:45 10° ESE visible
27 Dec 4.9 17:01:31 10° NE 17:01:59 10° NE 17:02:49 10° NNE visible
27 Dec 4.2 18:41:43 27° NNE 18:41:43 27° NNE 18:44:24 10° N visible
27 Dec 5.1 20:21:55 20° NNW 20:21:55 20° NNW 20:23:38 10° NNW visible
